Location: Colossi of Memnon
(25.7167°N, 32.6167°E)
Time: 04:49:20
(UTC+00:00)

Cosmos 1437 Rocket - Pass Details

Date: 05 March 2021
Orbit: 501 x 565 km, 81.2° (Epoch: 10 April)

Event Time Altitude Azimuth Distance (km) Brightness Sun altitude
Rises 03:25:11 0° 200° (SSW) 2,745 6.2 -10.7°
Reaches altitude 10° 03:27:26 10° 207° (SSW) 1,851 5.3 -10.2°
Maximum altitude 03:31:20 42° 279° (W) 802 3.2 -9.3°
Drops below altitude 10° 03:35:13 10° 351° (N) 1,846 5.4 -8.4°
Sets 03:37:28 0° 358° (N) 2,736 6.3 -7.9°
